RH
35 48 49 47 47 46 44 44 42 40 34 29 16 14 10 12 12 10 9 7 10 11 10 14 10 9 8 8 18 11 10 10 10 12 12 14 15 22 32 35 28 29 31 32 33 32 33
38 47 49 46 46 44 45 43 45 42 32 22 23 15 12 11 12 10 9 7 9 11 11 11 11 11 11 20 17 11 11 10 9 10 16 17 20 22 29 36 34 35 34 36 36 34 31
41 48 47 46 43 45 46 45 46 44 28 20 19 16 14 11 12 10 10 8 9 10 11 10 10 11 14 24 20 16 12 14 13 13 17 20 22 24 29 34 35 32 30 32 34 32 29
38 48 48 45 43 41 44 47 46 45 38 26 20 16 16 12 11 10 10 10 9 10 12 11 11 13 20 23 19 21 17 19 19 15 17 21 18 19 31 31 25 27 27 27 25 34 29
38 44 47 44 41 38 40 45 45 45 44 31 24 18 18 13 11 10 9 9 8 13 14 12 13 14 18 23 20 18 20 22 22 24 23 22 16 24 24 32 26 29 21 27 29 36 36
44 41 43 41 40 37 36 41 44 45 43 37 28 22 16 17 11 10 11 13 12 12 14 14 15 15 18 23 23 22 19 17 20 20 22 16 19 42 52 40 38 27 35 37 36 34 43
37 40 42 39 35 35 34 39 43 43 41 42 32 23 21 19 17 11 11 12 15 16 18 24 24 24 23 21 22 22 19 19 19 26 44 30 50 53 50 49 40 40 43 43 41 38 43
31 28 31 39 30 30 30 34 42 42 40 42 34 29 22 21 18 16 12 12 13 20 26 22 21 22 23 23 22 21 21 20 28 41 35 38 50 44 45 42 37 38 36 32 37 42 49
34 28 25 23 30 28 27 28 38 44 40 43 36 33 24 21 18 16 13 15 18 19 23 24 24 24 24 24 24 26 26 28 34 46 46 39 42 43 40 48 42 35 34 39 46 56 51
29 26 26 23 19 22 23 25 29 41 42 41 39 35 27 25 19 18 18 19 19 19 42 32 25 24 23 24 26 26 27 29 34 41 45 47 41 45 41 47 45 38 37 52 61 60 49
24 22 21 21 19 16 15 19 24 34 42 40 43 38 32 26 20 18 19 18 20 34 44 29 28 24 23 25 27 25 28 27 39 38 36 38 48 50 41 44 48 41 50 58 61 63 68
22 20 17 18 17 17 16 13 19 25 38 40 43 40 35 27 25 20 20 16 25 52 42 33 32 38 31 30 31 28 27 30 34 40 40 42 50 50 49 47 50 48 47 60 70 71 70
24 19 18 17 15 16 17 15 12 19 32 39 41 42 39 31 29 19 20 33 54 61 32 36 40 42 37 44 37 43 46 55 53 54 62 49 42 44 43 39 42 56 55 71 64 74 57
35 28 21 17 16 16 17 16 12 14 25 34 39 44 41 36 26 31 24 37 42 40 38 43 42 35 39 45 38 44 43 52 51 46 73 63 61 46 44 46 53 56 47 76 54 69 62
42 36 27 24 19 17 17 17 14 12 18 30 37 44 40 39 29 29 26 62 52 43 38 41 38 42 41 43 39 42 48 55 53 50 51 64 52 41 53 51 43 45 60 50 62 72 86
53 40 34 28 26 22 19 19 16 13 16 26 34 44 42 41 35 26 45 46 41 44 46 44 38 40 47 48 52 45 42 45 49 49 47 47 63 46 42 48 53 44 49 61 69 69 66
75 56 39 34 30 24 23 21 18 14 16 26 32 44 44 41 35 29 56 48 45 42 42 37 43 44 44 50 50 48 41 46 47 48 47 49 55 52 48 49 51 53 64 63 60 72 79
82 78 52 38 32 27 27 25 21 16 17 25 42 51 46 42 42 53 56 46 42 45 43 44 41 43 44 45 56 50 43 40 46 44 48 59 65 77 56 48 48 51 55 61 74 70 87
85 85 66 52 40 39 39 33 28 22 24 33 50 50 48 44 62 62 49 47 44 45 42 43 46 43 42 49 61 51 44 49 48 47 52 55 69 85 67 55 48 53 54 57 72 81 88
80 83 83 63 60 53 52 44 38 29 29 36 50 67 51 44 45 54 50 48 49 44 44 42 47 42 46 54 49 56 50 50 52 49 53 44 65 66 82 67 58 64 62 57 60 86 76
58 83 85 87 66 64 57 52 45 38 36 41 58 67 68 75 66 52 52 51 52 54 47 43 49 50 52 64 60 59 50 46 57 66 60 56 71 70 62 62 62 66 69 70 69 65 81
68 58 80 79 84 68 68 61 56 44 38 44 58 63 63 54 55 62 66 59 57 51 52 53 52 54 53 64 67 72 55 57 67 66 63 61 85 70 90 72 68 70 59 71 70 69 76
75 61 58 78 76 76 66 62 64 51 47 54 58 66 71 78 68 78 78 71 65 48 47 50 50 55 60 54 47 46 50 52 59 58 63 61 76 84 92 70 70 76 62 66 64 64 66
91 72 60 64 73 71 69 66 68 61 58 59 64 72 77 80 84 81 78 71 68 57 55 52 48 49 51 52 60 66 69 69 71 69 62 62 68 86 94 71 81 44 56 55 59 64 69
93 87 76 72 66 65 71 69 68 69 65 61 68 75 78 82 87 85 79 73 63 63 56 49 52 50 55 62 85 93 82 65 70 72 65 63 65 94 96 94 67 60 58 60 58 55 64
91 97 94 100 100 72 67 73 72 66 63 63 66 78 79 77 84 73 83 81 86 82 83 70 70 61 65 77 89 99 96 76 76 75 67 65 65 85 92 96 80 54 50 47 51 76 61
100 98 98 100 99 91 78 78 72 72 71 71 64 75 94 94 78 76 82 85 79 86 92 86 86 82 77 86 99 98 96 66 92 85 88 80 82 94 92 95 80 60 46 52 66 59 60
99 100 100 100 100 100 99 96 87 82 84 97 90 82 89 93 88 88 80 84 84 86 95 92 91 97 91 99 99 95 97 90 79 72 78 78 86 95 93 100 94 49 51 63 62 77 92
99 100 100 98 100 100 99 100 100 95 94 100 100 99 99 99 99 98 99 99 96 92 91 93 92 89 86 95 99 96 97 91 83 86 68 82 60 72 71 65 52 49 56 61 83 78 69
Wind_Speed
12 13 15 16 18 20 22 25 27 27 23 20 16 16 10 7 6 5 4 5 7 5 4 5 6 7 10 12 9 9 9 10 10 8 4 6 8 4 4 4 3 5 2 3 3 3 1
9 11 12 13 16 18 20 23 26 27 23 21 16 15 12 7 6 7 6 7 7 10 13 13 13 8 5 10 11 8 8 8 8 10 12 9 9 10 9 5 5 4 5 3 3 2 1
7 8 9 11 13 16 19 22 24 26 24 22 18 15 13 9 7 7 7 8 10 10 6 5 2 5 24 14 12 9 6 8 9 10 12 13 8 3 4 4 4 4 3 3 8 7 2
5 5 7 9 12 14 17 20 22 24 24 22 20 14 13 8 7 6 8 8 6 4 4 5 7 10 9 18 13 7 6 8 9 8 8 8 7 11 6 5 5 5 4 4 4 11 3
3 4 6 8 10 12 14 17 21 22 23 22 21 14 13 8 6 5 7 8 7 7 8 6 6 4 5 15 18 11 9 7 6 8 7 6 5 8 5 3 4 7 2 4 7 4 4
3 2 3 6 9 11 12 15 19 22 23 22 22 17 8 9 7 7 10 13 8 1 1 4 6 6 7 9 24 14 6 8 5 1 2 5 7 5 5 6 2 4 3 4 4 5 6
4 5 5 5 7 11 12 13 16 19 22 23 21 19 11 7 2 7 10 4 2 7 26 13 10 7 9 7 14 18 7 4 5 8 6 8 9 5 3 2 2 2 2 3 4 1 4
3 4 7 8 7 9 12 13 14 17 20 22 19 21 15 5 6 5 9 3 2 11 13 13 14 11 8 11 6 24 11 4 10 5 5 6 4 2 1 2 1 2 1 3 5 3 3
6 5 6 8 8 9 10 12 13 15 19 21 18 21 16 5 7 2 5 6 14 9 5 6 11 10 10 7 9 20 14 5 7 6 7 6 1 3 1 4 6 3 1 3 4 6 1
9 8 9 8 9 9 11 11 13 13 17 20 18 20 17 9 4 5 8 14 6 2 5 9 8 8 13 2 4 17 13 4 6 3 3 5 3 1 2 3 1 2 2 1 4 4 3
11 11 11 11 10 10 11 12 13 13 14 17 17 20 17 11 4 2 7 7 3 1 3 5 6 7 8 7 6 13 14 6 4 2 2 1 4 4 4 2 1 5 4 1 0 2 2
12 12 12 12 11 11 11 11 12 12 13 15 16 15 18 12 9 5 8 6 3 6 3 3 5 8 5 10 7 10 8 7 4 4 5 1 1 2 2 1 2 5 3 3 3 2 2
14 14 13 13 12 12 11 12 12 12 12 13 16 10 18 13 7 4 6 2 5 5 2 2 2 5 2 6 7 10 5 8 5 4 7 6 2 3 3 2 2 7 5 4 5 4 3
15 14 14 13 13 13 12 11 12 12 12 12 15 11 12 13 8 1 3 4 3 1 2 1 1 0 3 5 4 7 3 4 6 5 3 3 5 4 7 3 1 4 2 4 3 3 4
16 15 15 13 12 13 12 11 11 12 12 11 13 10 7 13 8 2 2 5 3 4 3 3 1 4 3 3 2 4 3 2 1 4 3 3 4 1 3 2 1 1 4 1 0 2 1
16 15 15 13 12 13 12 11 11 11 11 10 11 8 5 12 6 1 4 4 3 1 2 1 2 1 0 4 2 4 2 1 2 2 1 2 4 1 1 2 5 2 5 2 3 4 6
17 16 16 14 12 11 10 10 11 11 11 9 9 5 5 11 5 2 4 4 3 3 2 1 3 3 1 1 1 1 1 1 2 2 3 3 2 3 1 1 2 2 1 4 3 3 3
21 17 16 15 12 10 10 9 10 10 10 7 3 3 5 8 3 4 3 4 4 4 2 1 3 2 2 2 1 1 1 0 3 3 2 1 3 4 5 2 1 1 3 3 3 4 3
23 21 17 14 13 10 9 9 8 8 8 6 5 3 4 5 3 1 1 2 1 3 3 2 2 2 1 2 2 1 1 0 5 4 5 4 0 4 4 3 2 2 3 3 2 2 6
26 23 20 16 14 13 11 9 8 6 6 5 3 2 3 5 6 5 4 3 2 2 2 2 3 3 2 1 0 1 2 2 3 2 3 6 3 5 5 2 1 5 4 4 4 3 3
28 27 23 19 16 15 14 11 9 7 4 2 1 1 2 1 4 4 3 3 4 3 1 3 1 3 5 3 2 3 3 2 2 3 3 4 4 5 9 8 6 10 16 7 12 11 6
29 28 27 24 20 17 16 13 10 8 5 2 1 3 4 3 3 2 2 5 6 3 6 3 4 5 5 5 7 5 5 3 5 3 4 3 2 1 4 10 3 7 11 7 12 12 9
32 28 28 27 24 21 18 15 13 9 7 3 3 4 3 2 4 3 3 4 6 6 6 4 8 5 4 10 10 5 7 4 4 6 7 5 2 0 3 2 5 9 8 7 4 4 5
35 33 30 29 27 23 21 18 15 12 10 9 4 3 3 1 3 4 3 6 6 6 2 2 6 5 2 4 1 3 3 2 1 2 1 4 4 2 3 4 2 2 2 1 5 6 7
37 37 36 32 28 27 25 21 19 16 14 13 10 6 4 2 5 4 7 4 4 5 3 5 9 8 6 3 1 3 2 1 3 4 2 4 4 2 3 3 7 2 3 4 4 5 1
30 38 40 35 34 32 28 25 22 20 18 18 16 15 6 3 6 6 4 7 4 4 2 6 7 10 8 4 3 4 4 3 3 1 4 3 4 2 2 2 5 1 3 4 4 4 5
15 29 36 36 34 39 32 28 25 24 23 23 22 20 15 6 11 11 7 5 7 5 2 2 5 7 11 3 3 4 4 1 4 5 5 3 1 7 5 4 8 4 8 7 0 4 9
10 14 29 31 34 36 36 32 30 28 27 26 29 26 22 11 19 17 18 16 11 10 5 7 5 3 2 4 3 3 4 5 2 3 6 7 7 4 2 2 8 10 6 6 3 5 2
17 11 13 21 24 31 33 32 32 33 31 28 34 31 27 22 9 17 25 24 23 19 12 16 4 7 11 3 2 2 3 2 3 3 1 3 5 4 9 6 2 15 3 5 4 3 3
Wind_Direction
86 74 61 49 46 42 38 33 29 27 28 28 29 26 28 55 54 81 100 109 105 85 58 64 72 64 70 76 30 21 23 29 35 37 53 56 59 75 87 76 62 69 107 81 92 66 33
81 76 64 54 43 37 34 31 30 23 24 25 27 29 31 39 56 90 108 116 100 88 91 81 76 60 66 67 19 23 29 30 43 51 60 75 81 91 88 64 65 78 98 93 64 32 38
79 59 53 50 42 37 32 27 29 26 25 23 26 29 34 36 70 96 101 120 122 106 93 58 33 56 55 45 26 29 33 40 47 59 72 72 73 85 89 89 86 99 102 72 25 346 359
85 51 44 35 33 31 30 27 25 26 25 23 23 28 34 49 58 89 113 116 115 98 77 83 63 74 74 34 31 42 52 51 48 61 74 64 72 71 61 105 36 47 49 31 356 4 351
65 65 18 18 24 23 24 24 23 23 24 22 23 21 31 49 68 91 110 113 114 98 85 78 50 85 61 32 34 37 45 47 60 74 70 53 73 65 39 54 33 14 48 7 323 33 320
359 0 21 5 5 12 18 19 22 21 19 20 20 21 22 39 73 110 109 103 93 117 9 63 54 85 39 12 29 27 46 41 46 36 44 43 55 63 29 33 56 339 359 320 271 337 357
343 333 337 349 359 357 8 13 16 19 18 14 15 19 23 37 75 133 138 104 90 85 68 68 65 80 29 19 28 26 41 31 58 57 40 28 60 48 14 52 153 148 210 252 265 313 324
349 337 329 335 341 357 355 4 10 12 17 16 13 14 17 26 32 200 218 267 164 133 79 62 59 50 25 15 13 25 42 69 50 58 337 36 62 319 202 54 109 163 276 297 279 16 351
310 322 334 330 336 340 353 352 359 7 11 14 14 12 13 22 37 58 186 172 134 128 84 31 32 25 17 21 37 10 22 43 62 54 24 94 290 312 127 41 33 13 69 306 274 325 200
296 307 315 323 333 335 341 347 348 358 5 9 12 14 12 11 56 79 123 142 132 137 80 328 356 12 1 56 52 17 19 45 41 94 82 82 345 34 76 73 59 359 189 319 310 10 319
283 292 301 310 321 327 332 339 343 348 356 5 8 13 16 12 29 106 157 164 154 82 44 323 339 350 21 71 331 7 24 53 81 67 97 289 10 24 52 358 4 255 23 281 126 92 12
277 279 288 298 306 315 322 331 333 340 345 355 2 10 14 17 34 79 145 161 129 46 256 17 344 351 23 20 15 351 22 55 81 102 31 67 25 44 321 292 258 304 103 64 59 77 24
270 276 277 286 296 303 312 320 326 331 337 342 351 343 9 13 21 101 126 129 43 120 352 348 344 16 81 350 2 23 39 20 41 48 21 348 20 344 17 331 324 12 33 352 1 7 236
269 271 276 280 285 294 303 310 320 323 329 333 342 341 355 13 19 116 156 57 98 277 243 186 329 269 85 5 23 1 57 36 28 41 77 48 326 21 346 63 205 21 60 130 295 292 289
270 273 273 277 282 285 293 303 312 317 324 327 335 338 332 5 21 98 147 59 207 200 145 156 27 74 4 11 349 57 52 116 357 19 89 28 281 87 60 350 48 15 52 212 164 55 36
268 273 273 273 277 280 287 296 306 312 318 323 334 329 321 353 3 75 79 158 172 142 120 90 112 359 108 333 26 36 3 242 142 61 5 168 312 95 290 127 42 59 155 42 27 334 305
265 268 271 270 270 275 282 294 303 311 317 325 331 304 333 348 356 37 113 172 180 156 140 78 152 129 120 37 60 1 349 204 199 88 69 109 97 279 242 111 139 42 42 56 120 155 229
258 264 268 271 268 271 279 288 304 312 321 327 323 314 335 352 27 45 101 149 132 148 147 116 106 95 141 154 126 239 248 258 143 138 82 24 146 274 243 110 98 221 196 146 133 242 235
255 253 256 261 265 264 270 284 299 316 332 349 329 289 330 350 116 56 140 75 89 126 161 141 112 78 66 115 10 178 246 278 166 162 166 178 23 322 338 26 37 198 201 171 93 82 210
242 250 250 250 255 256 260 269 286 306 322 347 335 1 28 59 83 128 142 138 118 90 122 129 128 119 124 93 116 225 244 198 208 218 167 163 169 212 235 257 138 275 208 199 168 201 223
240 242 246 246 246 251 257 263 277 286 300 348 341 120 111 335 31 92 91 143 135 175 126 187 30 220 165 166 237 225 209 203 187 185 172 175 234 205 256 262 227 257 265 229 219 228 220
237 238 240 242 243 246 249 251 256 263 269 264 230 162 123 114 108 111 9 210 174 163 153 230 212 187 186 194 201 233 174 188 232 173 176 189 261 84 259 271 280 266 264 214 234 250 256
231 235 236 237 239 241 244 247 244 246 245 224 212 179 170 158 124 124 214 182 209 172 208 218 198 147 212 242 242 238 207 200 219 174 191 172 188 180 257 337 304 277 257 181 189 203 187
233 227 230 231 234 237 240 240 240 240 235 229 214 182 187 224 173 207 185 181 189 209 225 217 203 185 216 175 187 266 257 261 322 298 180 159 146 169 281 341 255 268 54 153 226 245 219
231 227 227 230 234 236 238 239 237 236 237 234 228 207 195 185 199 243 214 198 204 232 233 229 216 219 188 154 76 308 266 236 63 45 15 207 158 223 247 233 301 228 189 165 185 266 172
233 227 227 236 238 237 236 238 237 233 233 235 230 223 199 130 238 208 170 208 197 203 268 216 222 203 184 146 146 225 224 224 227 168 42 73 63 156 146 230 271 195 182 155 138 271 181
234 229 227 233 240 230 232 234 236 235 231 234 236 223 212 211 241 233 215 205 194 186 188 173 182 179 182 159 185 199 224 167 220 191 166 117 133 220 214 252 281 209 170 155 146 298 170
266 215 216 222 230 230 234 230 231 234 234 235 239 235 220 224 243 247 249 230 211 196 181 159 121 189 138 189 205 202 197 209 185 168 175 174 162 206 133 205 273 164 137 187 164 148 268
267 266 214 204 211 221 230 233 234 233 236 231 231 240 231 229 240 232 237 238 238 241 226 185 217 170 183 149 216 133 191 145 170 233 287 235 207 185 189 218 166 188 225 205 233 251 273